ZHONGXING-6E

Last updated on Tue Sep 22 2026 00:03:16 GMT+0000 (Coordinated Universal Time)

1 58253U 23172A 26264.51195078 -.00000365 00000+0 00000+0 0 9997 2 58253 0.0391 249.5001 0002451 285.7839 124.9315 1.00274938 10621
UTC large
Height (km)
Speed (km/s)
/
Latitude / Longitude
Inclination (degrees)
Orbital Period (minutes)
Azimuth
Elevation
Range (km)
Doppler Factor

Next 0 passes for location: London (51.5072 / 0.1276)

No passes found over London.
ZHONGXING-6E